Theta_e
340 342 343 345 345 349 352 354 354 355 356 356 356 356 358 357 358 356 357 358 356 355 357 355 352 355 355 351 350 352 357 357 357 358 356 356 358 357 362 358 363 364 365 365 364 363 365 363 364 365 366 365 363 362 361 362 366 364 362 366 356 356 354 353 352 353 348 344 347 345 346 348 349 348 350 348 347 347 348 346 347 349 350 351 356
341 341 342 344 345 348 351 353 355 353 355 356 356 356 358 358 358 357 357 358 356 355 356 357 357 353 352 352 351 352 355 354 355 358 355 355 361 362 361 360 362 365 365 368 368 365 364 362 363 365 365 365 365 366 366 364 366 363 360 358 360 353 354 352 353 355 344 337 338 340 339 344 348 347 345 346 347 347 348 348 350 345 345 348 351
339 340 342 342 344 346 349 352 353 355 355 355 357 356 357 359 359 361 359 357 356 356 356 357 358 360 356 355 355 353 356 358 356 357 358 353 356 359 361 364 363 365 367 366 367 364 364 364 363 363 366 366 364 363 363 363 363 360 361 356 355 357 354 355 358 354 345 341 344 342 332 333 340 344 344 345 344 346 345 344 345 343 344 348 352
337 340 339 341 343 346 348 351 353 354 354 354 355 356 355 359 362 362 359 358 358 359 358 358 359 360 362 361 361 359 357 360 363 361 359 355 351 356 364 365 364 364 364 363 364 364 365 364 364 364 369 369 363 364 363 361 363 362 361 362 359 354 351 352 354 357 352 345 339 337 334 332 329 338 342 342 343 343 342 341 342 342 344 347 353
337 338 339 340 342 344 347 350 352 351 352 353 354 355 353 356 361 363 360 358 359 360 359 359 360 360 360 360 360 361 360 357 358 354 357 359 353 355 358 363 363 364 364 365 364 366 367 365 366 367 367 365 363 362 361 360 361 363 363 364 361 355 353 352 355 353 354 356 350 344 333 329 334 336 333 341 340 339 340 341 343 342 343 347 347
338 338 339 340 341 344 347 349 349 350 351 353 354 355 356 357 360 363 362 360 358 361 361 360 359 357 355 353 351 351 350 350 348 350 351 352 351 353 360 359 361 364 365 365 366 366 366 369 369 368 366 364 363 362 361 360 361 364 366 363 362 364 361 355 352 355 353 357 359 351 350 344 339 343 336 337 346 340 341 341 342 342 343 345 351
338 339 340 339 341 342 345 348 349 348 350 352 353 356 357 358 360 361 362 361 359 362 362 360 358 356 356 352 350 349 347 348 353 352 350 353 355 356 359 359 362 361 362 364 367 368 370 370 371 367 366 365 364 363 360 359 360 363 366 366 364 365 365 360 353 352 354 356 351 350 350 351 348 344 341 340 340 344 343 342 343 344 343 344 344
337 338 340 341 342 342 343 346 347 347 350 351 351 354 358 361 361 360 362 361 361 362 361 361 358 357 357 353 350 349 347 349 353 354 355 355 355 358 357 357 361 361 362 365 368 368 369 369 370 369 367 366 364 362 361 362 365 368 366 368 367 367 366 359 356 356 353 352 351 350 351 349 349 348 347 342 339 339 341 343 346 346 346 348 348
339 337 338 340 341 342 343 344 346 347 349 350 351 354 359 362 363 361 361 362 361 363 362 360 360 358 357 354 352 352 350 351 354 355 354 357 356 356 358 356 359 362 361 363 364 367 368 367 370 369 366 365 363 363 362 362 363 366 366 366 365 367 366 364 363 360 355 352 355 358 353 350 348 349 348 348 342 341 339 340 343 347 347 349 351
339 338 339 340 342 343 344 345 345 347 348 350 351 353 358 362 363 362 361 360 361 364 362 360 361 361 358 356 355 353 353 353 351 352 355 356 355 356 358 358 355 358 361 363 366 365 367 369 367 366 366 363 362 364 365 365 364 366 365 363 367 366 367 364 363 362 358 357 356 355 355 351 350 350 348 346 345 347 341 338 340 341 342 346 352
339 338 339 340 341 343 344 344 345 347 348 350 350 352 357 360 362 361 362 360 361 362 363 361 361 361 359 358 357 356 355 353 352 353 354 355 354 354 355 358 357 355 354 359 360 362 363 366 365 363 366 365 363 365 364 360 361 363 364 367 367 367 365 366 362 361 359 359 356 356 351 347 350 346 349 347 347 344 346 342 342 344 343 342 350
339 339 339 340 341 342 344 344 345 347 348 350 350 351 354 358 361 362 363 361 361 361 361 360 359 360 361 360 359 357 357 352 354 353 354 354 353 353 355 355 356 354 356 354 357 355 360 361 364 364 366 367 365 365 365 364 363 364 365 366 367 367 368 365 363 362 359 360 355 352 352 350 350 349 348 351 350 350 347 345 341 347 348 346 348
340 339 339 339 340 341 342 344 346 348 349 351 350 350 353 356 360 361 363 363 362 361 360 361 361 361 360 360 359 358 357 356 355 354 355 353 352 352 355 355 356 356 354 351 352 357 359 361 363 363 364 366 368 368 366 366 368 365 365 365 366 366 366 368 363 362 361 357 357 356 354 351 350 353 349 347 351 351 349 344 346 348 345 344 351
340 339 339 339 340 341 343 345 346 348 349 350 351 351 353 353 359 360 363 364 364 361 360 361 361 361 362 361 359 358 357 357 355 354 353 354 353 353 352 351 354 355 354 355 352 352 354 358 361 362 364 366 370 370 368 369 370 368 367 366 364 367 368 367 365 362 363 361 359 353 353 352 353 353 354 352 349 348 347 347 350 350 346 343 348
340 341 340 339 341 343 343 346 347 349 349 348 350 353 354 354 357 360 361 364 364 362 361 361 360 361 362 362 361 359 357 357 355 355 355 354 351 352 353 350 350 353 353 357 360 357 356 358 359 360 361 364 367 369 364 368 370 369 368 369 369 367 367 366 363 362 358 361 362 358 354 353 350 355 353 351 353 351 348 349 351 348 346 344 344
341 341 340 341 343 345 344 347 348 349 351 349 350 353 354 356 359 359 360 363 363 364 362 361 361 361 363 363 362 361 360 358 357 358 359 357 355 352 354 356 354 355 357 359 359 361 359 358 361 360 362 361 365 368 368 366 369 367 368 370 368 363 366 367 365 362 361 362 361 361 360 353 353 354 356 355 355 357 355 354 353 353 350 345 346
341 340 340 341 342 345 345 347 348 348 348 349 352 354 356 357 357 359 359 361 361 363 361 361 362 362 362 363 361 361 359 357 355 357 356 358 358 356 353 353 354 357 355 359 359 362 361 360 359 357 359 361 364 367 366 367 368 367 365 368 367 364 366 367 365 364 365 361 359 360 359 355 355 358 356 355 359 362 356 355 356 352 355 352 346
346 343 343 343 343 344 346 346 347 349 348 349 353 354 357 357 358 357 357 358 358 360 358 359 361 361 363 363 363 362 359 357 356 356 356 357 358 358 356 353 354 355 356 356 360 359 361 362 361 359 359 361 362 363 365 366 368 365 365 370 366 369 367 369 367 364 364 364 363 361 359 356 357 356 354 355 359 367 359 357 357 360 360 353 353
342 339 340 342 343 344 347 347 350 352 352 350 352 354 355 357 357 354 354 355 355 355 357 358 359 358 359 362 361 361 360 359 357 359 360 358 356 356 357 356 357 359 359 361 361 359 360 362 364 361 359 360 363 363 365 367 368 366 365 364 366 370 368 366 367 366 363 362 363 362 364 359 359 357 356 355 358 362 363 359 359 362 362 362 360
343 342 341 341 342 343 344 345 348 351 352 351 352 353 352 355 355 354 356 357 356 354 356 356 357 357 357 360 362 363 362 359 360 360 358 359 359 358 359 358 358 359 359 360 360 359 358 359 359 357 355 357 359 362 362 364 365 365 363 360 362 367 368 368 364 361 360 361 364 363 364 362 360 360 359 358 358 362 363 360 362 362 363 364 362
345 345 346 344 342 341 343 345 348 351 352 351 350 353 354 356 355 357 357 358 356 354 354 357 357 357 358 358 358 360 360 359 358 358 359 360 360 361 359 360 362 360 360 359 360 360 359 359 358 359 356 358 363 363 363 365 365 366 365 365 366 368 370 367 367 365 363 362 363 363 363 362 364 361 359 357 357 358 363 362 362 360 359 362 360
343 345 345 345 343 342 344 346 347 349 350 352 351 354 355 355 356 357 358 358 359 355 356 358 358 357 357 357 358 358 360 359 357 356 357 357 358 360 362 362 360 362 362 359 362 359 359 358 359 359 360 358 364 367 362 363 365 364 365 361 363 366 369 367 366 366 365 362 364 364 363 362 365 364 361 357 357 356 356 357 357 358 358 359 363
342 344 344 344 346 344 341 344 346 349 349 352 353 354 355 357 358 358 358 360 359 357 358 360 360 358 358 357 357 358 359 359 356 355 353 354 355 357 361 360 358 359 362 361 361 361 362 361 360 359 362 361 364 364 365 364 364 364 365 364 361 362 363 363 364 366 364 364 362 363 361 362 359 359 361 361 358 356 356 357 357 358 359 360 361
342 344 345 344 344 345 346 343 345 346 348 350 354 356 357 358 360 359 359 360 360 359 358 361 362 361 358 357 357 358 356 357 356 354 353 353 353 355 359 358 358 358 358 362 362 363 364 365 361 362 362 363 362 362 363 364 364 366 366 365 366 364 363 363 363 363 362 363 362 362 361 361 361 361 362 362 361 360 359 360 360 362 362 361 363
339 341 341 341 341 339 340 347 348 347 348 349 352 354 356 357 359 359 360 361 361 361 361 360 361 361 360 357 356 357 357 356 356 355 353 352 353 353 356 357 357 357 358 360 363 363 364 365 361 361 362 362 362 362 363 362 362 364 365 363 364 364 365 365 365 364 365 366 364 363 362 363 363 360 361 361 360 360 360 360 359 361 360 360 360
339 339 340 340 341 340 342 345 348 348 347 347 349 353 355 356 358 360 360 361 361 362 360 359 361 361 361 361 357 355 357 357 357 356 355 354 354 354 354 356 357 356 357 358 361 362 361 364 364 362 361 363 364 363 364 364 362 362 363 364 364 365 363 365 365 364 365 365 365 364 363 363 362 360 360 361 363 363 363 360 360 360 359 359 360
338 339 341 342 343 343 341 342 343 346 348 350 351 352 353 353 356 359 360 360 361 363 362 362 362 361 360 360 358 357 356 357 359 359 357 355 355 355 354 353 355 355 355 356 358 361 362 362 363 361 359 362 364 364 366 367 366 364 364 364 362 363 363 363 364 363 363 363 363 362 363 363 363 362 360 360 361 362 360 360 361 363 362 361 358
337 338 339 340 341 342 340 341 343 344 343 343 345 347 347 348 352 355 355 356 360 362 362 362 362 361 359 359 357 357 358 358 360 363 363 360 357 356 356 357 356 355 353 354 356 357 360 361 362 362 361 362 364 365 368 369 368 366 364 363 364 363 361 362 362 363 362 362 361 361 361 361 362 364 363 363 364 360 361 360 359 360 361 360 359
334 333 334 334 335 338 338 340 340 342 342 343 341 344 346 349 350 353 351 351 352 360 362 361 361 361 360 361 362 364 364 362 363 363 363 364 363 360 359 359 359 357 354 354 356 356 358 359 360 360 362 361 360 362 363 364 365 366 366 362 362 362 362 362 362 361 362 363 363 362 361 360 362 364 364 366 367 367 362 362 363 363 362 363 363
329 330 331 332 333 334 335 336 337 337 338 340 343 344 343 346 349 351 353 355 356 351 356 360 358 357 361 362 363 364 363 362 363 363 364 364 364 360 357 359 358 358 358 357 357 358 358 358 359 361 362 360 360 362 366 366 366 366 365 362 360 361 361 361 361 362 361 361 361 361 361 365 364 363 364 370 367 366 365 362 363 362 357 357 358
326 327 328 329 330 331 332 333 334 335 336 337 338 341 346 348 351 352 353 355 357 356 355 360 359 358 359 363 365 363 363 361 364 364 364 363 359 357 357 359 360 359 358 359 357 356 356 356 357 358 360 360 360 362 364 346 347 353 363 363 361 361 363 364 362 362 363 361 361 360 361 362 366 368 369 370 369 368 368 368 366 366 367 365 360
325 327 327 328 328 329 330 331 333 334 335 336 337 339 343 346 349 350 352 354 354 355 356 358 361 361 361 363 365 364 363 362 363 363 364 361 353 352 355 354 355 358 361 357 357 358 360 357 356 356 357 358 359 362 343 342 344 343 354 363 363 360 360 360 361 359 358 359 359 359 358 357 358 360 362 369 369 370 368 365 362 361 361 364 364
325 325 326 327 328 329 331 332 333 332 333 335 338 339 340 344 346 350 353 353 352 352 354 355 357 361 363 362 364 363 364 365 364 362 361 360 356 355 354 353 354 356 357 358 360 360 360 358 356 357 356 358 358 351 340 340 340 339 341 356 361 363 360 359 359 359 358 358 361 360 360 358 356 361 360 364 368 369 361 358 358 358 360 359 350
326 326 327 328 329 330 330 331 332 332 334 337 338 338 339 343 346 347 348 349 350 352 354 355 357 358 359 361 362 362 361 362 361 360 359 357 356 355 355 355 355 355 354 357 361 360 356 360 361 360 360 359 361 349 337 337 337 336 337 346 361 360 360 360 360 361 360 359 365 363 364 363 363 363 364 367 371 370 370 369 367 366 363 363 364
325 325 326 327 329 331 331 330 330 331 333 335 336 338 339 340 341 341 344 345 345 346 348 350 353 356 357 357 358 357 356 358 359 358 356 353 352 351 354 354 354 353 354 351 355 351 354 354 352 350 353 352 352 329 332 334 333 333 335 345 360 360 360 361 360 361 364 364 364 361 362 363 363 367 368 371 370 369 368 364 364 363 362 363 364
325 325 326 327 328 330 330 329 330 330 332 333 334 339 339 339 340 340 341 341 341 342 343 345 346 349 350 355 356 355 354 355 354 354 353 352 352 351 350 353 350 348 346 346 349 353 355 355 354 353 354 353 352 327 326 328 329 332 337 356 360 362 362 359 356 356 363 367 367 365 364 361 358 364 366 359 365 368 365 363 363 364 363 363 364
328 326 325 327 329 330 330 331 330 330 330 332 336 338 339 339 339 338 338 337 338 337 338 339 339 341 345 348 350 350 351 353 351 348 348 351 349 348 350 351 348 347 349 349 349 352 354 356 355 355 356 356 354 332 322 322 323 325 338 357 361 362 361 357 356 357 362 365 363 361 358 357 358 365 360 342 345 362 362 361 361 362 361 361 362
327 327 326 327 328 328 330 330 329 328 329 331 335 336 336 336 338 339 338 337 336 335 337 337 336 336 337 341 344 344 344 345 345 345 346 346 347 347 348 348 347 345 342 344 345 350 353 355 355 355 355 357 357 338 323 321 323 324 339 356 357 358 358 358 354 356 362 362 361 361 359 356 363 367 351 337 336 357 362 360 360 359 360 359 361
326 325 324 324 326 327 328 329 329 328 329 330 332 334 333 333 335 336 337 336 335 335 335 335 336 336 335 335 336 336 336 335 337 339 341 343 345 345 345 345 345 344 344 345 347 348 351 352 353 354 352 354 355 340 317 318 319 322 341 355 356 356 359 359 356 353 356 357 362 361 359 362 364 361 340 333 331 354 359 359 361 359 358 358 360
325 325 325 326 327 325 324 324 325 326 330 330 328 330 332 331 332 334 334 334 335 336 338 337 336 336 336 335 334 334 332 332 332 333 333 332 337 344 345 345 344 344 345 346 346 350 351 351 351 355 354 355 356 346 326 313 315 319 323 346 355 353 352 353 354 354 351 354 356 356 362 347 338 336 331 328 326 330 356 358 357 356 357 358 359
323 324 325 322 323 322 321 323 326 327 326 328 329 328 329 331 331 331 331 333 336 337 337 336 337 337 336 336 336 334 333 333 334 334 334 335 334 335 339 342 342 342 343 344 344 347 347 347 346 347 348 346 344 342 328 311 312 313 318 329 349 352 353 351 352 353 352 352 353 353 355 344 328 326 323 320 320 321 333 355 357 357 354 358 358
324 325 323 319 317 318 320 322 325 327 327 327 329 329 329 330 329 327 328 330 332 334 333 333 333 333 333 334 335 335 334 334 336 336 335 335 337 339 338 340 342 342 341 341 342 344 342 337 337 338 339 339 337 335 337 318 312 311 311 317 337 345 337 343 346 348 349 350 351 352 357 338 317 317 316 314 314 317 322 344 354 334 333 331 355
322 321 320 318 316 315 316 318 322 325 328 328 328 329 329 330 329 329 329 330 331 331 331 330 330 330 331 331 333 335 336 334 334 335 334 336 337 339 341 342 342 341 341 340 339 337 334 330 329 329 330 332 334 333 327 331 317 311 310 312 313 326 322 339 344 344 346 347 350 351 352 332 316 312 312 312 314 316 324 336 325 324 327 330 347
322 323 321 318 317 316 315 316 318 322 325 328 328 328 329 330 331 334 333 332 332 332 331 330 329 328 328 329 331 333 336 336 335 336 336 336 337 339 339 341 341 339 336 334 332 332 331 328 326 326 327 328 328 329 326 324 326 317 313 310 311 312 315 328 332 335 340 341 342 343 336 313 309 305 307 311 313 318 331 320 317 321 324 332 351
322 323 324 322 320 318 317 317 318 320 323 325 326 327 328 329 331 333 333 332 331 330 329 328 328 328 326 327 329 332 334 334 334 335 334 333 334 335 333 335 335 334 333 330 328 329 327 326 324 323 325 326 326 327 326 326 325 325 319 315 315 314 316 316 333 333 337 338 326 312 309 309 311 311 311 314 319 322 315 314 315 318 332 343 346
321 323 323 322 322 321 318 317 319 319 320 323 323 324 326 328 331 331 332 331 331 330 329 328 327 327 326 325 325 325 328 330 332 333 334 333 332 331 330 330 331 331 331 329 327 326 326 326 324 324 324 324 323 323 323 324 325 325 324 320 318 319 327 328 330 331 328 323 318 316 314 315 320 324 337 338 338 338 328 324 324 327 334 342 345
322 324 324 323 322 321 321 321 320 321 319 318 320 322 325 328 329 329 331 333 332 330 329 328 327 326 327 326 324 322 322 325 328 329 329 329 330 331 329 329 330 328 328 329 327 326 326 326 325 325 324 324 323 324 322 320 322 321 320 321 323 326 327 328 330 334 333 333 334 334 332 323 321 323 327 331 334 333 334 335 336 337 341 342 343
328 329 328 326 325 323 322 322 322 323 322 320 319 322 325 327 327 330 332 332 332 331 328 328 327 327 327 326 325 326 324 321 321 323 323 324 325 325 323 323 325 327 327 326 326 324 322 321 321 322 324 323 325 326 319 315 316 316 316 316 319 323 327 327 327 328 326 328 332 334 331 340 342 341 340 340 340 339 337 337 339 340 343 343 341
328 329 329 328 328 326 324 324 324 325 325 323 322 321 325 327 328 330 332 331 332 332 331 330 329 328 328 328 327 327 324 323 321 321 320 320 320 322 322 321 320 320 321 324 324 323 323 322 321 320 320 319 320 319 319 308 311 305 307 310 314 317 318 320 323 312 317 323 331 335 334 335 338 336 336 336 337 336 335 336 336 336 336 335 335
329 329 329 329 329 329 327 325 325 326 326 326 325 324 324 324 328 330 331 331 331 330 329 327 328 327 327 326 327 325 326 325 323 321 320 318 311 302 309 322 322 312 303 297 302 320 321 324 324 322 320 317 317 317 304 297 295 295 296 297 299 298 297 306 309 306 312 321 333 333 331 332 335 336 334 334 333 334 333 332 331 330 333 332 331
327 326 327 327 327 328 329 328 327 328 327 327 327 327 326 325 326 327 328 329 330 328 327 326 327 325 324 327 325 326 327 327 327 325 324 322 319 318 298 298 307 305 300 294 294 295 298 302 318 324 316 305 307 301 295 294 294 295 295 295 296 297 298 297 299 315 328 331 334 332 332 333 334 334 333 332 332 331 332 331 329 330 331 330 329
Wind_Speed
10 11 11 10 10 9 8 8 8 9 9 10 10 10 10 9 9 9 8 8 7 7 6 6 6 5 5 6 6 6 5 6 5 5 6 5 7 6 6 5 5 4 3 3 2 1 1 1 2 1 1 1 0 1 2 3 2 2 1 1 3 2 2 2 3 3 2 2 1 1 2 3 5 3 1 3 4 3 4 4 2 2 3 3 2
11 11 11 11 9 10 9 8 9 10 10 11 11 11 10 10 10 9 8 8 8 7 6 6 5 5 6 5 5 6 5 5 5 5 5 7 6 5 6 5 5 4 3 3 2 2 2 2 2 1 1 1 1 1 1 0 1 1 2 1 2 3 2 4 5 5 4 1 1 1 2 3 1 4 7 6 4 4 3 4 3 4 4 5 4
10 12 12 11 11 11 9 8 8 10 11 11 11 11 11 10 9 9 9 9 8 8 7 6 6 5 5 5 5 5 5 4 5 4 3 6 7 6 5 4 5 4 4 4 3 3 2 1 2 2 1 1 0 1 1 0 0 1 1 2 4 2 0 2 3 5 3 1 1 4 2 5 4 3 2 2 3 2 2 2 3 5 4 3 2
12 12 13 12 11 10 10 9 8 9 10 10 11 12 10 9 10 10 9 9 8 8 7 7 6 5 3 4 3 4 5 4 3 4 4 5 7 7 5 5 5 5 5 4 3 2 2 1 1 2 1 0 0 0 1 1 1 1 1 3 2 4 1 3 2 3 5 3 2 2 2 2 4 3 3 2 2 2 1 1 4 4 3 2 3
12 13 13 13 12 11 10 9 9 9 10 10 11 11 8 11 10 10 9 10 9 9 8 7 7 6 5 4 4 3 4 5 5 6 6 5 6 7 7 5 5 4 4 3 3 2 2 1 1 1 1 0 0 1 1 1 0 1 1 0 2 4 4 2 2 3 4 4 4 2 1 4 1 1 2 1 4 2 1 1 2 4 4 3 4
12 13 12 12 12 11 11 10 10 9 9 10 10 11 10 11 11 11 9 9 9 10 10 8 7 7 7 6 7 6 6 6 7 7 7 7 7 7 7 7 6 5 4 3 2 2 3 2 1 1 1 1 1 1 1 1 3 2 3 2 1 3 4 4 2 2 2 2 0 1 2 3 2 4 5 1 4 4 2 1 1 2 3 2 4
12 12 13 13 12 12 11 11 10 10 10 9 10 10 11 11 11 11 9 9 9 10 11 8 8 7 8 8 8 7 7 6 5 5 5 5 5 6 5 6 5 5 5 4 2 2 2 2 1 1 1 1 1 1 3 3 2 1 2 1 2 3 3 2 3 2 3 3 1 0 1 2 2 3 3 3 3 1 3 3 1 0 2 2 3
12 13 13 12 13 13 12 12 11 10 10 10 10 10 11 12 12 12 9 9 9 10 11 9 9 8 9 8 7 7 8 6 6 5 4 4 5 5 6 6 6 5 4 3 3 3 2 2 2 2 1 1 1 2 2 1 2 2 2 2 1 1 1 2 4 5 2 0 3 4 1 1 2 2 3 4 3 4 4 6 3 0 3 1 3
12 13 14 13 13 13 12 12 12 11 10 10 10 10 11 11 12 12 10 10 9 12 11 11 9 9 9 8 7 6 6 6 6 6 5 4 5 5 4 4 5 5 5 4 4 4 3 2 2 2 2 2 3 3 3 1 1 1 0 0 1 1 1 1 2 2 5 2 1 3 5 4 3 2 1 4 4 4 2 4 9 1 4 1 3
13 13 14 14 13 13 13 12 12 11 10 10 10 10 11 11 12 12 12 10 10 12 11 12 11 9 9 8 8 7 6 5 6 6 5 5 5 5 5 4 4 5 6 6 4 5 4 3 4 3 3 3 3 2 2 1 2 2 2 2 1 2 1 2 3 2 3 4 3 1 2 4 4 4 4 3 3 1 5 5 5 3 3 2 2
13 13 14 14 14 14 13 13 12 11 10 10 10 11 11 11 12 13 12 10 11 12 12 12 12 10 9 9 9 9 8 7 6 6 6 6 5 6 6 5 4 4 5 6 7 6 5 5 4 4 3 2 3 3 4 4 3 4 3 2 2 2 2 2 3 4 4 3 5 2 4 5 2 4 4 5 6 5 6 6 6 5 6 7 3
14 13 13 14 14 14 12 12 12 11 11 10 10 11 11 11 11 12 12 12 12 12 13 12 11 11 10 10 10 9 9 8 8 7 7 7 7 6 5 4 4 5 4 5 6 7 6 5 5 4 4 3 3 4 3 3 3 2 2 1 2 3 3 3 4 4 5 4 6 5 4 5 4 4 5 1 3 3 4 6 5 6 5 6 3
14 14 14 14 13 13 13 12 11 11 10 11 11 12 12 11 12 13 13 12 12 13 13 13 12 11 11 11 10 9 9 8 8 8 7 7 7 6 6 5 5 5 5 6 6 7 5 5 5 4 4 4 3 3 3 3 3 3 2 3 2 3 3 3 4 5 5 5 5 4 5 6 5 4 5 5 4 2 4 5 6 6 6 5 3
15 15 15 14 13 13 13 12 12 12 13 13 12 11 11 11 13 13 13 13 12 12 13 13 13 12 11 11 10 9 10 9 8 8 8 7 7 7 7 7 6 7 6 6 6 7 7 6 6 6 5 4 4 4 4 4 3 4 3 4 4 3 3 3 5 6 5 6 6 6 6 6 5 5 4 5 6 5 4 5 4 5 7 7 4
14 14 15 15 14 14 13 12 12 13 14 13 12 11 11 12 12 13 13 13 13 13 12 13 12 12 11 11 10 10 10 9 9 8 7 8 8 8 7 7 7 7 6 5 5 5 6 5 5 6 6 6 6 5 5 4 4 4 4 4 4 3 3 4 5 6 6 5 5 6 6 7 6 5 6 6 5 5 6 5 4 6 6 6 6
14 15 15 16 15 14 13 13 13 13 13 12 13 12 12 12 13 14 14 14 13 13 12 12 12 11 12 12 12 11 9 9 8 8 7 7 8 8 8 7 6 5 5 5 5 6 6 6 6 7 6 6 7 6 5 5 5 5 4 4 5 5 4 5 6 6 7 7 7 6 5 7 6 6 6 5 5 5 5 5 4 4 5 6 5
12 13 13 15 14 13 13 14 13 13 13 13 13 13 14 13 14 14 14 13 14 13 13 12 12 12 13 13 12 12 12 12 10 11 11 9 8 8 8 8 8 6 6 6 6 6 6 7 7 7 7 7 6 6 6 5 5 5 5 5 5 6 5 4 6 6 6 7 6 6 6 6 6 6 6 7 5 4 6 5 4 5 4 5 6
5 9 11 12 13 14 13 13 14 13 14 14 15 14 13 13 14 15 15 15 15 14 14 13 12 12 12 13 13 13 12 12 11 11 11 9 9 8 8 8 8 8 7 6 6 7 6 6 6 6 6 7 7 6 6 6 6 6 6 5 6 5 5 5 5 6 6 6 6 7 6 6 6 6 7 7 5 4 6 6 5 5 3 5 5
0 2 5 8 9 10 11 12 12 12 13 14 15 15 13 13 13 15 16 17 17 14 13 12 12 10 10 12 13 13 12 11 11 10 9 10 11 10 10 8 8 8 7 6 6 7 7 7 6 7 7 7 7 7 6 6 6 6 6 6 6 6 5 6 6 6 6 6 7 7 6 7 7 7 7 7 6 5 6 6 6 5 4 5 5
4 1 2 5 6 6 8 9 9 10 12 12 13 12 14 13 13 13 13 14 14 14 13 14 14 12 11 11 11 11 11 11 10 10 10 10 10 10 10 10 9 8 8 8 8 8 8 8 8 8 8 8 9 8 8 8 7 7 7 7 6 6 6 6 6 7 6 6 6 7 7 7 6 6 7 7 6 6 6 6 6 5 5 6 5
3 4 1 4 3 5 7 8 8 8 8 8 9 11 10 9 11 12 12 13 14 15 14 13 12 12 13 13 12 12 13 11 12 12 11 11 10 10 10 9 8 9 8 9 9 9 8 8 8 7 8 8 7 7 6 6 7 7 7 7 6 5 6 6 6 7 7 7 7 7 8 7 7 7 7 7 7 7 7 6 6 6 6 6 7
1 0 1 1 3 5 5 5 7 8 9 10 10 9 9 10 10 10 11 12 13 13 12 11 11 11 13 13 13 11 11 11 13 12 12 11 11 10 9 9 10 9 9 9 9 9 9 9 9 9 8 8 8 7 8 7 7 8 8 7 8 8 8 8 7 8 7 7 7 7 8 8 8 8 8 8 8 8 7 7 7 7 6 6 5
2 2 3 2 0 3 5 5 5 6 8 9 9 9 10 11 10 10 11 12 12 12 11 10 10 10 12 12 12 12 11 12 13 13 14 13 12 12 10 10 10 9 10 9 9 10 9 9 10 8 8 9 8 8 8 8 8 8 8 8 8 8 8 8 8 8 8 8 8 8 8 8 7 8 8 8 8 8 7 7 8 6 6 6 6
3 3 2 3 2 2 4 4 6 6 6 7 7 7 7 8 9 9 11 12 11 10 10 10 10 11 12 12 12 11 12 12 13 12 14 14 12 12 11 11 11 10 10 10 10 10 9 9 9 9 9 9 9 9 9 9 9 9 9 9 9 8 8 8 8 8 8 8 8 8 8 8 8 8 7 7 7 7 7 6 7 6 6 6 6
4 4 4 4 3 1 1 4 2 3 4 3 4 6 7 7 9 10 10 10 10 9 9 10 10 11 11 11 12 12 12 12 13 12 14 14 13 12 11 12 11 11 11 10 10 10 9 10 10 10 10 10 10 10 10 10 9 9 10 10 9 9 9 9 9 9 8 8 8 9 8 8 8 8 8 8 7 8 7 7 7 6 6 6 6
6 3 2 4 5 4 4 4 4 2 1 4 3 3 4 6 9 9 9 9 9 9 11 11 10 11 10 11 12 12 12 12 12 12 13 13 12 13 12 11 11 12 11 11 10 10 10 11 11 11 10 10 10 10 10 10 10 10 10 9 9 9 10 10 10 9 9 9 9 9 9 9 8 9 8 7 7 7 7 7 7 7 6 6 6
7 7 4 2 4 5 5 5 5 5 4 4 4 4 4 6 9 9 9 9 10 10 11 11 11 11 10 11 12 12 12 11 11 11 11 12 12 12 13 12 11 12 12 11 11 11 10 11 11 11 11 10 10 10 10 10 10 10 10 10 9 10 10 9 10 10 10 10 10 9 9 9 9 9 9 9 8 8 7 8 8 6 7 7 8
8 9 9 8 7 7 8 6 4 4 3 5 5 4 4 6 7 6 8 10 8 10 11 12 12 11 12 13 12 12 12 10 9 8 8 11 12 12 11 11 11 12 12 12 12 11 11 10 11 11 11 10 10 10 9 9 9 10 10 10 10 10 10 10 10 10 10 10 10 10 10 10 10 9 9 9 8 8 7 6 7 7 7 8 8
11 11 11 12 11 10 10 8 8 8 6 3 1 4 4 4 5 4 4 8 11 10 10 11 11 11 11 11 10 9 9 8 7 6 7 8 9 11 11 10 11 11 11 12 12 11 11 11 11 10 10 10 10 10 9 9 10 10 10 10 10 10 10 10 10 11 10 10 10 10 10 11 9 9 8 5 6 5 3 4 4 8 8 6 6
11 11 11 11 11 10 9 9 8 8 7 6 3 1 1 4 4 6 6 7 4 10 11 10 12 11 11 10 9 8 8 9 9 9 8 7 6 9 15 11 10 11 11 10 11 11 11 11 11 11 11 10 9 8 8 8 5 8 9 9 9 9 9 9 9 9 11 11 11 11 10 10 8 8 7 7 8 9 8 9 8 2 2 5 7
11 11 11 11 11 10 9 9 9 8 8 7 6 6 5 4 4 5 7 8 8 9 10 9 11 11 10 10 10 11 10 10 9 8 8 7 1 5 13 13 10 10 11 11 10 11 11 11 11 11 11 10 9 8 8 11 11 10 10 9 9 8 9 9 10 10 10 11 11 11 11 10 10 10 10 12 11 11 10 10 10 9 7 6 6
11 11 13 13 12 12 11 10 10 10 9 8 6 6 5 4 4 5 5 7 9 9 8 7 8 8 9 10 8 9 10 10 10 9 9 7 7 9 8 7 11 13 8 10 12 12 11 11 10 11 11 11 10 9 13 13 12 12 10 10 7 10 7 6 7 10 10 11 11 11 11 10 10 11 11 9 11 11 9 7 8 8 10 11 11
13 13 13 12 12 11 12 12 11 10 9 9 8 7 6 6 5 4 5 5 7 8 8 8 7 7 8 8 8 8 9 9 10 10 9 8 7 7 7 6 8 11 11 12 11 12 11 11 11 11 11 11 11 11 16 13 13 12 12 11 9 8 8 10 8 9 10 10 10 10 10 10 9 8 9 7 7 8 10 10 9 9 11 13 12
12 11 11 12 11 11 11 11 10 10 9 7 8 7 6 6 6 6 5 4 5 6 6 6 7 7 7 8 7 8 10 10 10 11 10 10 9 7 7 6 5 6 9 11 11 11 11 9 8 9 9 9 9 9 8 10 12 11 9 8 8 9 7 11 12 9 9 8 7 9 9 10 10 10 8 7 7 8 7 8 9 10 10 11 12
10 10 11 11 12 13 13 12 10 9 9 8 9 7 6 6 6 7 6 6 7 6 6 6 6 7 7 8 8 8 9 9 9 9 8 9 10 7 5 5 5 4 4 5 8 8 5 3 3 3 6 10 8 12 6 4 5 4 4 7 7 7 8 8 9 12 11 10 11 8 8 9 11 10 8 6 8 8 7 8 9 10 10 10 9
9 9 9 10 12 12 12 10 8 8 9 9 9 7 9 9 9 10 9 9 9 10 10 10 9 8 7 8 8 8 9 9 7 7 8 9 7 7 7 5 4 2 3 3 3 6 5 3 2 2 4 2 2 6 8 7 3 5 7 5 7 7 6 3 5 13 12 8 7 5 5 7 10 14 7 9 9 9 9 9 10 10 10 10 10
10 11 11 10 10 11 11 9 9 10 9 10 9 9 10 12 12 11 11 11 11 11 10 10 10 10 9 6 5 5 4 5 4 6 8 9 8 8 7 5 5 4 4 4 4 5 6 5 4 5 6 5 6 6 6 6 7 4 5 6 6 4 3 5 6 10 12 8 6 5 7 10 15 13 7 9 11 8 10 10 10 10 9 9 9
9 9 10 10 9 9 10 10 11 11 11 9 10 11 12 13 13 12 13 12 12 12 11 11 11 11 10 9 9 7 6 3 2 3 6 6 5 4 5 5 5 4 4 4 3 3 6 5 5 6 6 4 3 6 6 5 3 1 5 5 3 4 5 5 6 7 8 8 12 11 10 13 13 9 6 11 9 9 8 9 9 11 11 11 10
9 9 9 10 9 9 9 9 10 11 10 11 11 12 13 14 13 13 14 14 13 12 11 11 10 9 11 12 11 11 9 8 7 7 5 4 4 6 4 4 3 4 4 4 4 4 5 5 4 5 3 4 5 6 10 7 6 5 4 3 3 4 6 5 4 5 7 10 9 9 16 13 10 9 4 4 8 9 9 9 10 9 11 12 10
8 8 9 8 7 9 10 11 11 10 10 11 12 11 12 12 12 12 14 14 12 11 10 11 12 10 8 10 11 11 9 8 8 8 8 8 7 3 4 4 3 3 3 4 4 3 3 3 3 3 3 4 2 6 8 7 6 7 8 5 4 5 8 8 6 4 5 8 10 11 9 10 11 9 10 5 5 9 10 11 10 11 11 13 9
8 7 6 7 8 9 10 10 9 9 10 10 10 11 11 10 10 10 12 10 9 9 9 9 9 9 10 9 8 8 10 11 9 8 6 6 4 5 4 1 4 3 3 1 1 3 4 5 6 7 7 8 7 6 9 10 10 9 10 8 5 6 7 7 8 8 7 8 7 6 13 6 2 7 9 9 7 9 10 10 11 9 11 3 3
8 7 6 8 8 9 9 10 10 9 10 10 10 10 10 10 10 11 10 8 8 8 8 9 9 9 9 9 9 8 7 7 8 8 8 8 7 6 5 4 1 3 4 5 4 4 5 6 6 7 7 7 9 12 6 10 11 11 10 11 5 4 6 6 8 9 8 9 8 8 8 10 15 12 13 12 12 11 9 7 13 14 8 7 6
6 7 8 7 8 9 9 9 9 9 9 9 10 11 10 10 11 10 8 8 8 7 8 8 8 8 8 8 8 8 7 7 7 8 8 8 8 7 6 4 3 4 5 7 8 7 6 6 6 6 6 7 7 7 12 8 9 9 9 8 9 7 9 6 6 7 7 7 7 8 7 14 16 14 14 14 14 13 9 10 13 13 13 11 9
7 7 7 8 8 8 8 9 9 8 8 8 8 9 9 10 11 8 8 7 7 7 7 7 8 8 8 8 8 9 8 7 9 7 7 8 8 8 9 8 7 8 8 6 7 6 6 7 8 7 7 6 6 6 7 11 8 8 8 8 8 8 7 6 5 5 4 5 5 5 7 12 12 12 13 13 14 13 10 12 11 13 12 10 10
7 7 6 7 7 8 8 9 8 9 8 8 8 8 9 10 8 7 7 7 7 8 8 8 8 7 7 7 7 8 8 8 9 9 9 9 9 9 10 10 10 10 10 9 8 7 7 6 7 7 6 6 6 6 6 7 11 9 7 6 8 8 9 8 6 4 4 4 5 8 11 10 10 12 13 12 11 11 13 13 12 10 10 9 9
8 7 7 7 8 9 10 10 9 8 8 8 8 8 8 7 6 6 7 7 7 7 8 8 8 8 9 9 8 9 9 9 8 9 10 9 9 9 9 9 9 9 9 9 8 7 7 5 5 5 4 4 4 4 5 6 7 8 7 7 8 9 10 10 9 8 9 10 10 10 10 9 9 9 8 7 8 7 4 5 5 5 5 9 8
8 7 6 6 8 9 10 10 9 8 8 8 8 8 7 6 6 6 7 6 6 6 7 7 7 8 8 9 10 8 8 9 8 7 7 7 7 7 8 8 8 7 7 8 8 7 5 6 5 4 3 3 3 3 4 5 6 5 6 6 6 6 7 7 7 5 4 5 5 5 5 7 8 10 11 8 6 4 4 3 3 4 4 3 3
6 6 6 7 8 8 9 9 9 8 8 8 8 8 8 8 7 7 6 6 7 7 7 7 8 7 7 7 8 8 9 8 8 8 7 6 7 7 7 6 6 6 6 5 5 5 4 4 3 3 2 2 1 0 3 4 5 5 5 6 6 6 5 5 6 5 6 7 7 6 9 6 3 3 3 2 2 2 3 1 1 1 2 1 7
6 6 6 6 7 8 8 8 8 7 8 8 8 7 7 7 7 7 6 6 6 6 6 6 5 5 5 5 6 6 6 7 8 8 8 8 7 6 6 6 6 5 5 4 4 3 3 3 3 3 3 3 3 3 3 2 4 4 4 5 5 5 6 6 5 7 8 8 7 6 5 2 2 3 3 4 3 4 5 7 7 7 7 7 8
6 4 5 6 7 7 8 7 7 7 7 7 7 7 7 7 6 6 6 6 5 4 5 6 5 5 5 4 5 6 6 5 6 7 7 7 8 9 8 5 4 7 9 8 6 3 3 1 2 2 3 2 3 3 3 4 6 7 7 8 9 9 9 7 9 12 6 6 6 4 3 4 4 3 4 4 5 4 5 6 8 9 9 9 8
4 5 5 5 5 6 7 7 6 6 6 6 6 6 6 6 6 6 6 6 6 5 5 4 5 6 6 5 5 5 4 4 4 4 4 5 6 7 9 10 8 6 7 7 8 7 6 6 3 1 3 3 2 3 5 6 7 8 8 8 9 9 8 6 6 4 4 5 4 2 2 3 3 3 4 4 5 5 6 7 8 10 10 9 9
Wind_Direction
175 176 180 181 175 166 169 164 165 165 166 160 169 168 171 169 164 165 166 158 160 163 168 171 161 163 162 168 155 154 153 151 164 156 159 149 142 147 155 156 154 160 159 166 159 135 196 107 132 171 131 86 112 45 49 25 24 329 335 295 318 1 18 311 62 341 339 202 163 246 175 181 167 194 277 211 185 188 165 189 196 226 179 181 217
174 176 180 183 181 169 169 172 172 165 167 167 175 172 172 173 170 168 166 168 168 169 166 171 169 172 170 171 162 152 155 172 158 168 165 134 144 146 173 145 157 166 157 162 159 176 174 171 151 168 141 98 32 34 26 56 344 312 343 271 226 16 360 3 27 307 216 22 328 133 174 166 87 196 191 202 200 174 184 189 189 237 205 180 185
181 178 182 183 183 176 176 178 174 171 171 173 174 173 172 174 173 170 171 172 171 168 173 174 176 173 185 165 176 155 164 172 158 157 167 148 157 164 163 154 171 170 168 168 176 184 186 173 171 144 141 92 159 186 164 142 273 343 283 12 334 194 265 87 24 349 344 32 97 247 150 195 158 211 225 117 249 128 206 189 206 214 189 200 189
187 183 182 184 182 183 181 179 179 176 175 176 175 174 175 173 173 175 172 177 172 166 180 175 173 170 188 176 168 169 165 159 152 158 173 160 163 164 171 169 186 180 177 185 175 177 172 180 166 143 139 100 237 86 268 181 184 223 308 51 329 304 80 60 27 48 346 353 263 341 171 252 188 185 201 164 197 179 242 218 184 215 196 197 194
193 188 186 183 185 185 186 183 180 184 182 177 179 173 178 173 172 175 174 177 174 168 178 170 162 173 171 169 176 158 166 172 179 176 176 175 178 175 171 182 182 197 180 185 178 155 150 175 151 148 135 218 249 194 215 214 42 132 77 253 26 349 354 15 60 11 58 10 353 279 170 222 9 250 283 142 280 229 219 333 76 265 230 175 241
200 195 192 187 187 185 187 186 189 188 190 180 184 173 175 171 170 173 174 177 177 171 176 175 173 176 174 173 178 180 178 185 188 182 180 178 189 174 170 184 186 199 190 202 159 157 155 170 178 235 193 153 204 317 355 227 192 243 105 336 76 56 348 328 22 125 56 57 45 100 111 356 322 346 268 117 279 296 278 226 23 274 288 180 252
199 202 197 194 187 191 189 191 196 195 190 185 185 172 173 168 170 174 174 177 177 172 175 179 180 185 186 186 185 186 186 185 194 190 184 178 191 174 172 182 188 208 197 194 174 165 175 180 205 248 219 192 197 212 222 231 159 118 53 64 16 33 356 352 309 20 47 261 184 112 70 313 345 311 349 289 242 150 296 292 149 248 246 248 234
197 200 200 200 190 196 193 192 199 198 189 186 185 172 172 168 169 174 173 177 177 170 177 182 183 186 190 197 189 194 191 184 183 193 191 183 188 191 183 190 184 215 220 179 209 191 202 203 214 249 255 243 228 226 248 266 32 69 85 47 31 20 360 337 343 340 305 263 17 313 188 170 316 271 313 327 278 277 8 321 266 160 296 43 324
205 197 198 201 195 196 195 197 199 199 189 187 187 173 169 169 168 172 173 176 176 174 179 184 188 186 191 194 195 200 203 185 189 192 195 196 195 199 202 199 186 200 222 217 202 219 205 225 224 246 239 236 235 234 231 176 216 44 20 214 214 178 259 37 306 311 298 342 45 300 336 303 270 308 243 262 299 332 88 291 286 6 258 86 340
207 204 199 198 200 198 197 198 199 197 191 189 188 176 169 169 171 173 174 179 177 177 183 185 189 188 194 198 195 197 194 189 194 185 193 191 202 196 196 216 211 196 201 216 218 217 220 221 234 227 231 234 247 276 284 238 215 213 242 254 5 319 337 256 257 280 290 318 298 312 290 295 306 293 291 282 279 119 273 244 276 324 297 272 289
204 206 201 199 200 201 200 200 198 196 196 189 190 182 175 173 172 176 177 180 178 181 185 187 192 193 196 196 196 193 189 188 187 186 188 190 202 196 195 199 219 215 208 192 211 217 215 224 237 227 244 230 243 241 233 236 208 204 209 142 232 264 263 275 268 255 267 281 279 245 270 266 267 289 302 321 318 327 321 310 299 328 330 320 290
201 205 206 202 201 203 201 202 197 195 195 191 194 185 185 177 175 177 179 182 181 183 188 191 194 196 199 196 197 196 194 190 191 191 194 196 202 205 206 201 208 207 218 209 204 213 211 219 229 236 233 237 229 239 249 252 256 247 232 227 218 220 255 262 278 295 283 255 270 274 257 272 268 262 279 248 246 295 302 305 312 289 290 298 328
201 201 205 205 203 201 202 201 198 193 196 195 197 191 189 185 178 179 180 183 183 185 189 194 197 198 199 198 199 199 198 200 196 199 199 202 209 207 196 207 203 217 211 217 210 217 207 213 230 234 234 236 253 274 266 261 283 275 269 249 245 245 238 243 247 251 258 284 291 285 282 281 291 293 281 287 318 285 266 276 292 316 299 284 304
204 202 203 202 203 201 203 202 194 194 198 196 199 197 190 188 186 185 183 183 183 189 189 194 199 200 199 200 197 198 203 202 202 206 203 205 208 213 208 201 202 212 211 209 225 214 214 207 215 226 233 240 234 237 251 259 250 262 252 256 253 239 265 262 260 260 260 257 255 273 277 279 287 295 296 274 271 277 276 293 310 300 293 293 294
205 203 204 201 200 201 199 196 196 198 200 199 198 194 192 190 187 190 186 186 185 189 192 195 198 201 200 203 201 200 202 204 207 211 207 205 209 204 212 215 210 207 214 210 214 229 226 218 212 224 218 224 227 231 237 231 235 242 254 255 271 260 253 265 264 261 263 259 261 262 273 275 279 284 274 283 292 291 296 303 308 300 301 300 293
209 205 205 206 201 198 198 196 197 199 199 200 196 191 193 191 189 192 193 189 188 189 193 197 199 200 202 203 204 204 205 206 204 207 211 215 207 216 200 215 230 213 210 215 209 215 220 221 214 219 222 216 217 223 235 240 224 236 241 242 242 245 239 241 253 263 262 261 265 276 279 278 280 276 287 292 289 294 307 303 289 277 290 298 308
212 209 207 207 206 200 200 200 202 203 200 199 194 191 193 190 191 192 195 195 194 193 195 197 198 202 202 203 205 205 207 209 205 202 208 206 213 211 208 211 214 224 222 208 216 206 217 220 224 226 204 217 220 222 231 230 234 238 235 235 247 255 252 252 267 271 274 276 267 257 265 277 279 281 281 281 286 292 286 283 275 283 287 285 287
276 226 213 208 206 203 204 206 209 206 202 197 193 195 192 194 192 192 193 199 201 198 199 198 198 203 205 206 207 211 210 213 214 207 207 208 206 214 219 211 217 214 217 226 206 204 203 212 226 228 229 212 221 226 220 224 225 236 239 237 244 253 254 254 257 263 265 264 268 274 279 276 276 271 262 263 269 252 264 258 258 260 253 268 289
296 192 205 210 208 209 205 212 209 207 207 201 195 195 192 196 199 198 198 200 204 202 201 201 200 204 206 208 209 210 216 216 217 216 211 211 212 206 216 218 215 213 210 216 219 217 206 205 214 223 215 223 218 226 224 228 225 233 237 236 227 224 238 245 247 245 252 258 267 271 267 268 273 278 283 280 272 254 251 263 274 275 265 268 275
149 288 253 221 212 214 222 220 215 211 208 209 204 200 201 199 198 202 202 204 205 206 201 204 203 206 207 206 210 213 214 220 220 217 216 213 213 215 211 213 216 217 208 203 216 221 216 213 207 213 219 215 219 219 222 217 222 233 238 239 236 219 228 236 247 254 257 252 251 255 259 264 272 275 273 272 267 255 264 267 259 258 252 255 261
170 169 275 324 293 222 214 212 216 214 215 218 215 211 212 199 203 201 199 200 204 206 205 204 206 207 209 210 209 209 215 216 221 218 219 218 217 218 217 219 209 215 215 208 209 217 214 217 226 222 220 216 222 229 226 227 222 225 230 243 256 254 245 245 246 251 257 261 256 258 264 267 269 271 273 270 269 262 247 250 257 259 260 253 252
32 166 184 252 311 284 251 221 213 210 211 207 210 208 205 201 203 197 197 200 205 207 207 203 207 207 212 212 216 212 212 218 221 220 219 221 221 217 220 221 220 210 215 218 214 211 210 215 218 217 223 220 217 220 232 229 225 228 233 233 230 231 235 246 251 250 248 254 253 248 254 257 252 255 264 267 262 264 261 255 247 248 256 263 262
305 219 212 213 313 308 276 252 217 212 216 212 208 208 205 204 199 199 198 200 202 204 203 203 204 209 211 216 218 218 215 218 222 223 222 222 218 217 215 218 221 218 207 216 214 219 216 213 218 220 213 219 220 223 226 233 234 233 235 245 251 244 241 245 244 244 246 243 244 247 248 249 253 252 248 254 264 265 268 272 273 274 274 270 267
356 32 39 49 100 5 334 257 227 226 226 222 211 210 206 209 205 204 205 202 202 203 199 196 199 207 210 214 217 225 226 221 222 224 228 225 226 218 211 217 219 223 215 204 216 218 214 214 219 217 216 220 218 221 227 225 225 231 237 239 243 250 255 252 250 251 248 244 245 248 255 258 262 262 261 272 275 271 266 257 259 261 262 270 268
34 51 66 92 90 129 301 348 317 204 181 241 219 213 222 219 219 214 211 206 201 200 204 199 202 205 211 217 221 220 225 228 229 230 227 227 227 227 217 215 218 220 222 213 202 214 215 210 217 217 217 219 221 222 224 229 230 227 229 235 239 240 239 243 250 253 252 251 254 256 254 251 249 251 254 254 259 260 259 262 263 255 255 258 260
42 35 56 86 88 74 44 21 6 354 185 177 240 238 236 247 242 232 222 212 205 198 201 201 200 204 207 211 220 225 224 224 229 231 235 233 230 230 228 217 220 222 219 221 214 207 210 210 216 220 220 218 222 226 227 231 232 231 230 232 234 236 239 242 244 243 242 244 248 247 248 248 249 250 255 255 263 275 272 263 262 267 269 268 260
45 50 42 74 92 75 59 34 5 354 24 42 33 3 319 263 251 247 241 224 216 205 198 201 202 203 204 209 215 218 222 226 226 229 231 235 235 232 233 231 222 227 223 220 220 215 212 213 210 218 222 220 221 225 229 229 234 238 237 237 241 238 239 240 239 241 245 246 244 243 242 242 245 249 252 254 249 249 257 260 257 262 258 257 255
61 53 47 47 59 63 56 27 11 354 356 354 357 347 351 350 334 343 327 285 236 214 210 204 200 200 208 214 220 222 222 224 230 235 242 245 240 236 237 233 229 226 230 227 225 220 216 216 215 215 220 222 219 223 222 227 233 235 234 236 238 246 247 242 241 241 245 246 244 244 244 242 240 239 241 249 251 254 262 277 274 261 255 255 261
49 49 46 42 41 40 50 45 30 16 21 85 212 304 329 320 307 313 219 250 274 245 219 222 217 216 218 222 221 217 205 207 208 216 228 246 276 281 250 234 230 230 226 229 226 228 222 218 219 221 221 222 224 221 223 222 224 228 239 242 240 242 243 246 249 250 247 244 246 249 248 247 244 242 252 268 290 326 302 267 284 276 282 292 290
39 42 46 44 44 43 41 47 42 33 18 12 28 52 246 278 277 262 247 252 205 262 249 228 233 231 229 227 226 216 207 215 203 212 219 226 222 239 256 238 239 233 230 230 229 228 227 224 219 217 218 221 225 226 219 212 223 237 232 237 244 247 250 253 253 253 253 250 247 246 248 253 262 256 233 208 222 232 241 259 266 295 328 276 297
37 39 42 44 43 39 37 37 37 35 31 18 356 349 344 328 277 269 265 256 251 239 239 236 239 240 238 231 225 221 216 216 212 215 216 207 170 308 291 279 255 241 235 227 232 226 229 228 228 225 220 223 223 223 172 169 194 230 248 244 241 249 241 243 252 252 254 258 258 254 252 240 222 213 215 213 215 220 224 232 244 247 244 239 240
39 41 41 37 34 34 33 34 31 29 31 29 16 352 344 337 310 279 271 270 255 255 257 252 248 249 243 236 224 223 221 219 218 221 214 171 165 203 228 252 272 257 244 248 223 224 228 229 232 233 233 230 229 188 159 179 198 208 224 247 249 244 262 282 264 258 250 247 249 253 254 250 241 236 243 212 214 206 211 226 241 254 254 249 230
45 42 40 39 36 32 32 33 32 27 31 35 36 31 17 14 16 352 317 292 272 258 254 255 252 250 248 241 229 222 217 210 209 212 207 183 188 195 194 203 235 262 262 228 232 229 223 229 237 241 244 242 245 160 171 181 196 204 212 231 249 251 247 241 253 263 269 256 252 258 264 267 262 244 238 218 201 203 197 210 233 247 254 255 241
50 46 43 43 43 39 36 32 30 27 28 35 45 47 39 29 31 27 24 7 343 323 305 285 278 268 258 245 230 227 228 227 229 226 211 202 200 188 193 197 210 236 262 272 244 231 238 243 253 260 253 256 251 104 218 195 198 202 204 214 251 258 262 253 243 247 252 270 288 269 260 258 259 261 261 241 218 235 234 227 229 238 247 247 242
54 48 45 44 43 43 40 34 27 25 25 30 38 43 57 57 49 50 38 31 33 20 356 333 304 289 277 265 255 244 242 242 238 230 211 211 211 199 179 174 164 179 223 269 308 332 1 11 27 4 349 314 358 8 62 106 113 181 162 224 257 257 249 262 279 256 245 243 239 245 258 266 269 250 244 233 245 246 246 249 251 253 248 249 249
60 59 50 45 45 45 46 40 25 22 34 36 39 39 55 57 55 54 47 42 38 32 27 19 6 345 302 267 246 245 247 234 216 228 227 223 209 215 205 177 171 129 93 139 243 282 283 294 277 252 244 238 252 20 357 25 65 146 177 224 242 245 254 294 284 291 278 254 253 260 278 276 270 262 224 220 230 249 261 262 261 254 254 254 252
63 59 57 49 50 53 50 52 44 33 32 43 45 50 57 59 59 58 55 49 44 44 40 35 27 15 15 356 291 274 262 244 198 217 228 216 202 201 187 170 168 157 165 160 181 226 255 249 230 229 235 224 208 131 78 36 8 326 244 250 255 257 238 220 236 245 259 255 247 227 243 247 242 245 240 211 207 226 256 264 265 263 263 261 254
67 71 66 59 49 52 55 52 51 46 37 38 50 57 59 61 60 61 61 56 49 44 44 45 43 38 31 22 23 37 45 7 357 254 204 190 169 145 140 145 149 153 153 130 131 228 236 239 239 242 243 237 208 115 126 115 127 334 309 306 299 267 241 247 250 265 263 248 241 225 235 254 258 260 236 204 191 200 241 252 257 260 258 256 250
66 61 62 61 56 49 56 54 52 53 48 46 50 58 63 63 61 61 61 59 55 51 48 48 45 41 42 44 42 38 31 30 22 31 14 322 185 161 145 151 154 153 173 172 181 200 243 250 255 263 303 273 239 115 70 43 355 330 311 287 292 284 287 277 279 287 305 284 266 219 237 250 257 282 328 201 194 209 247 253 255 261 257 249 251
73 73 74 68 60 59 53 49 45 53 61 56 52 56 58 58 56 58 61 59 57 53 49 53 57 56 55 56 55 53 43 40 35 22 15 20 342 347 120 131 149 164 185 192 193 198 220 264 295 282 262 269 319 72 57 51 24 352 349 324 296 289 284 283 273 263 273 284 295 295 248 234 254 236 263 274 242 232 249 259 260 260 257 248 250
66 67 64 71 62 53 52 47 39 41 56 57 58 59 57 54 54 53 52 52 52 53 44 39 36 40 45 46 46 45 50 52 44 36 34 27 8 358 17 106 184 197 177 158 53 53 52 67 47 38 34 38 35 54 56 43 39 23 17 352 309 309 317 311 297 282 266 265 264 257 286 103 264 351 334 311 271 239 243 258 259 247 254 321 111
72 63 65 70 63 59 57 54 45 37 44 56 57 59 61 58 55 54 51 44 45 45 47 44 41 39 39 39 36 28 27 40 42 45 40 31 24 25 31 18 311 196 172 157 140 99 75 56 42 39 38 44 48 41 47 61 42 33 27 15 349 351 11 318 296 289 289 285 286 296 286 20 8 358 342 328 310 293 269 257 256 255 247 162 210
65 72 68 69 74 66 59 54 48 43 35 41 51 52 53 53 53 52 53 48 43 43 44 47 47 44 40 37 35 37 44 43 50 49 50 42 30 25 18 42 76 81 87 89 82 79 78 72 59 44 39 27 24 45 29 39 52 34 26 17 8 356 340 314 293 285 290 291 297 303 309 5 347 337 320 313 299 288 266 246 253 260 249 224 216
70 60 58 69 71 70 72 63 53 43 40 36 45 51 49 49 46 41 46 49 49 48 50 56 60 57 51 41 33 33 35 46 52 52 56 54 53 49 44 48 64 77 77 74 78 83 82 75 68 59 49 43 38 28 27 21 22 24 14 8 355 341 326 326 314 292 301 308 310 325 341 333 315 309 298 295 293 279 261 255 247 252 256 230 226
83 75 69 66 73 76 72 69 64 58 47 40 39 47 45 45 37 39 47 49 55 55 55 57 53 56 66 66 57 44 40 43 48 48 45 43 43 45 49 43 49 54 59 62 56 59 66 67 71 66 53 38 23 20 8 4 1 2 353 346 336 323 305 290 286 299 293 316 335 307 292 292 294 295 293 286 287 272 249 247 251 262 247 224 219
98 90 84 87 79 68 68 68 64 62 63 51 46 42 38 27 26 41 50 55 59 59 56 54 58 57 50 58 65 61 56 54 52 50 51 49 45 43 45 46 49 55 61 68 65 68 73 75 70 63 52 42 32 23 14 356 349 343 342 333 322 305 303 302 294 278 283 284 280 278 276 276 287 282 291 318 322 324 305 261 257 251 245 233 219
81 76 79 76 78 78 72 67 61 51 52 56 49 46 39 24 21 36 54 48 56 63 62 59 59 61 63 58 52 52 60 54 48 54 51 45 43 46 51 52 51 53 60 67 71 67 58 58 58 52 43 37 30 355 18 350 340 337 334 330 325 313 308 303 309 307 300 281 276 278 289 274 262 277 278 286 307 313 280 262 252 227 214 237 304
87 83 80 80 76 74 70 67 63 57 54 50 51 46 42 31 27 27 33 48 49 41 53 56 57 56 54 54 60 59 61 63 53 42 39 41 53 52 47 42 39 41 51 62 58 55 47 44 42 31 41 22 328 175 25 350 338 342 329 324 322 318 330 336 316 335 332 306 289 262 247 245 286 308 314 257 317 339 359 309 312 296 20 62 102
97 83 77 76 78 78 75 71 66 62 61 58 51 46 40 40 32 28 26 39 45 53 55 60 61 65 61 53 60 55 57 72 79 69 56 37 20 29 52 57 35 13 358 15 60 75 64 49 35 15 2 357 2 15 19 359 316 310 308 323 334 335 331 310 330 347 320 295 267 256 276 257 59 7 347 349 15 44 38 38 45 63 70 69 70
110 105 93 83 76 76 77 75 71 65 65 66 62 53 40 38 35 33 28 34 34 41 53 48 42 42 43 52 52 58 45 46 82 93 94 78 57 45 18 25 57 29 27 18 5 44 20 13 79 47 2 350 0 3 348 301 278 282 285 268 267 271 265 266 283 293 288 294 288 302 328 351 355 14 27 23 22 31 63 68 62 63 73 68 66
138 127 107 86 77 76 75 69 68 67 66 67 68 61 59 51 40 36 32 34 28 29 24 48 45 44 22 7 31 41 64 52 42 66 92 108 108 71 51 42 48 59 45 42 49 42 32 6 347 107 93 34 12 328 299 286 293 297 299 304 320 336 344 301 269 277 246 241 276 336 342 3 5 27 42 49 51 56 62 76 79 79 77 74 72